Simultaneous Nadir Overpasses (SNOs) Predictions

Prediction of SNOs over PacNW region [( 10.00, 139.50) to ( 22.70, 165.60)] between AQUA and NPP Satellites:

Table of predicted SNOs over PacNW region for the next 30.0 days since TLE Epoch: 8/15/2015
Index Date (AQUA) Time (AQUA) AQUA Lat,Lon Date (NPP) Time (NPP) NPP Lat,Lon Distance(km) Time Diff (sec)
1 08/18/2015 02:41:12 18.11, 160.93 08/18/2015 02:38:58 17.83, 159.64 139.51 134
2 08/23/2015 15:10:01 22.64, 159.83 08/23/2015 15:13:30 27.58, 158.36 569.27 209
3 08/26/2015 03:29:24 13.82, 149.53 08/26/2015 03:28:21 13.49, 147.99 171.32 63
4 09/03/2015 02:41:09 18.54, 160.85 09/03/2015 02:38:48 18.26, 159.56 139.51 141
5 09/08/2015 15:09:48 22.61, 159.85 09/08/2015 15:13:17 27.23, 158.29 536.91 209
6 09/11/2015 03:29:13 14.09, 149.51 09/11/2015 03:28:06 13.75, 147.95 172.67 67
